Wetterdaten: Montag, 02.12.2013
Datum Zeit Temperatur Luftfeuchte Luftdruck Regen Wind Richtung Richtung Taupunkt Windchill Windben
02.12.2013 00:01 -10,4 C 84 % 1027,5 hPa 0,0 l/m 0,0 km/h (0 Bft) N 360 -12,6 C -10,0 C 0,0 km/h (0 Bft)
02.12.2013 00:05 -10,6 C 84 % 1027,1 hPa 0,0 l/m 0,0 km/h (0 Bft) N 360 -12,8 C -10,2 C 0,0 km/h (0 Bft)
02.12.2013 00:12 -10,2 C 84 % 1027,1 hPa 0,0 l/m 0,0 km/h (0 Bft) O 90 -12,4 C -9,9 C 0,0 km/h (0 Bft)
02.12.2013 00:15 -10,2 C 84 % 1027,1 hPa 0,0 l/m 0,0 km/h (0 Bft) O 90 -12,4 C -9,9 C 0,0 km/h (0 Bft)
02.12.2013 00:23 -9,9 C 85 % 1026,9 hPa 0,0 l/m 0,0 km/h (0 Bft) N 360 -11,9 C -9,8 C 0,0 km/h (0 Bft)
02.12.2013 00:25 -9,9 C 85 % 1026,9 hPa 0,0 l/m 0,0 km/h (0 Bft) N 360 -11,9 C -9,8 C 0,0 km/h (0 Bft)
02.12.2013 00:34 -9,7 C 85 % 1026,9 hPa 0,0 l/m 0,0 km/h (0 Bft) NO 45 -11,7 C -9,9 C 0,0 km/h (0 Bft)
02.12.2013 00:35 -9,7 C 85 % 1026,9 hPa 0,0 l/m 0,0 km/h (0 Bft) NO 45 -11,7 C -9,9 C 0,0 km/h (0 Bft)
02.12.2013 00:45 -10,2 C 84 % 1026,9 hPa 0,0 l/m 0,0 km/h (0 Bft) N-NO 22 -12,4 C -10,0 C 0,0 km/h (0 Bft)
02.12.2013 00:50 -10,2 C 84 % 1026,9 hPa 0,0 l/m 0,0 km/h (0 Bft) N 360 -12,4 C -10,0 C 0,0 km/h (0 Bft)
02.12.2013 00:56 -10,2 C 84 % 1026,9 hPa 0,0 l/m 0,0 km/h (0 Bft) N 360 -12,4 C -10,1 C 0,0 km/h (0 Bft)
02.12.2013 01:00 -10,3 C 84 % 1026,9 hPa 0,0 l/m 0,0 km/h (0 Bft) N 360 -12,5 C -10,1 C 0,0 km/h (0 Bft)
02.12.2013 01:07 -10,6 C 84 % 1027,0 hPa 0,0 l/m 0,0 km/h (0 Bft) N 360 -12,8 C -10,5 C 0,0 km/h (0 Bft)
02.12.2013 01:10 -10,6 C 84 % 1027,0 hPa 0,0 l/m 0,0 km/h (0 Bft) N 360 -12,8 C -10,5 C 0,0 km/h (0 Bft)
02.12.2013 01:18 -10,1 C 84 % 1027,0 hPa 0,0 l/m 0,0 km/h (0 Bft) O-NO 67 -12,3 C -10,3 C 0,0 km/h (0 Bft)
02.12.2013 01:20 -10,1 C 84 % 1027,0 hPa 0,0 l/m 0,0 km/h (0 Bft) O-NO 67 -12,3 C -10,3 C 0,0 km/h (0 Bft)
02.12.2013 01:29 -9,8 C 85 % 1026,9 hPa 0,0 l/m 0,0 km/h (0 Bft) N 360 -11,8 C -10,1 C 0,0 km/h (0 Bft)
02.12.2013 01:30 -9,8 C 85 % 1026,9 hPa 0,0 l/m 0,0 km/h (0 Bft) N 360 -11,8 C -10,1 C 0,0 km/h (0 Bft)
02.12.2013 01:40 -10,6 C 84 % 1026,9 hPa 0,0 l/m 0,0 km/h (0 Bft) N 360 -12,8 C -10,6 C 0,0 km/h (0 Bft)
02.12.2013 01:45 -9,1 C 85 % 1027,2 hPa 0,0 l/m 0,0 km/h (0 Bft) N-NO 22 -11,1 C -10,3 C 0,0 km/h (0 Bft)
02.12.2013 01:51 -9,0 C 86 % 1027,2 hPa 0,0 l/m 0,0 km/h (0 Bft) N-NO 22 -10,9 C -10,0 C 0,0 km/h (0 Bft)
02.12.2013 01:55 -9,2 C 86 % 1027,2 hPa 0,0 l/m 0,0 km/h (0 Bft) O 90 -11,1 C -10,0 C 0,0 km/h (0 Bft)
02.12.2013 02:02 -9,2 C 86 % 1027,2 hPa 0,0 l/m 0,0 km/h (0 Bft) NO 45 -11,1 C -9,9 C 0,0 km/h (0 Bft)
02.12.2013 02:05 -8,6 C 86 % 1027,1 hPa 0,0 l/m 0,0 km/h (0 Bft) O-NO 67 -10,5 C -9,9 C 0,0 km/h (0 Bft)
02.12.2013 02:13 -9,6 C 86 % 1027,1 hPa 0,0 l/m 0,0 km/h (0 Bft) O-SO 112 -11,5 C -9,6 C 0,0 km/h (0 Bft)
02.12.2013 02:15 -9,6 C 86 % 1027,1 hPa 0,0 l/m 0,0 km/h (0 Bft) O-SO 112 -11,5 C -9,6 C 0,0 km/h (0 Bft)
02.12.2013 02:24 -10,4 C 85 % 1027,0 hPa 0,0 l/m 0,0 km/h (0 Bft) N-NO 22 -12,4 C -10,2 C 0,0 km/h (0 Bft)
02.12.2013 02:25 -10,4 C 85 % 1027,0 hPa 0,0 l/m 0,0 km/h (0 Bft) N-NO 22 -12,4 C -10,2 C 0,0 km/h (0 Bft)
02.12.2013 02:35 -10,6 C 84 % 1027,0 hPa 0,0 l/m 0,0 km/h (0 Bft) N-NO 22 -12,8 C -10,6 C 0,0 km/h (0 Bft)
02.12.2013 02:40 -10,8 C 84 % 1027,0 hPa 0,0 l/m 0,0 km/h (0 Bft) N-NO 22 -13,0 C -10,7 C 0,0 km/h (0 Bft)
02.12.2013 02:46 -10,9 C 84 % 1026,9 hPa 0,0 l/m 0,0 km/h (0 Bft) N-NO 22 -13,1 C -10,8 C 0,0 km/h (0 Bft)
02.12.2013 02:50 -11,1 C 83 % 1026,9 hPa 0,0 l/m 0,0 km/h (0 Bft) N-NO 22 -13,4 C -11,0 C 0,0 km/h (0 Bft)
02.12.2013 02:57 -11,2 C 83 % 1026,9 hPa 0,0 l/m 0,0 km/h (0 Bft) N-NO 22 -13,5 C -10,9 C 0,0 km/h (0 Bft)
02.12.2013 03:00 -11,3 C 83 % 1026,9 hPa 0,0 l/m 0,0 km/h (0 Bft) N-NO 22 -13,6 C -11,1 C 0,0 km/h (0 Bft)
02.12.2013 03:08 -11,2 C 83 % 1026,9 hPa 0,0 l/m 0,0 km/h (0 Bft) NO 45 -13,5 C -11,3 C 0,0 km/h (0 Bft)
02.12.2013 03:10 -11,2 C 83 % 1026,9 hPa 0,0 l/m 0,0 km/h (0 Bft) NO 45 -13,5 C -11,3 C 0,0 km/h (0 Bft)
02.12.2013 03:19 -11,0 C 83 % 1026,9 hPa 0,0 l/m 0,0 km/h (0 Bft) O-SO 112 -13,3 C -10,7 C 0,0 km/h (0 Bft)
02.12.2013 03:20 -11,0 C 83 % 1026,9 hPa 0,0 l/m 0,0 km/h (0 Bft) O-SO 112 -13,3 C -10,7 C 0,0 km/h (0 Bft)
02.12.2013 03:30 -11,6 C 83 % 1026,6 hPa 0,0 l/m 0,0 km/h (0 Bft) N-NO 22 -13,9 C -10,9 C 0,0 km/h (0 Bft)
02.12.2013 03:35 -10,7 C 83 % 1026,6 hPa 0,0 l/m 0,0 km/h (0 Bft) O 90 -13,0 C -11,2 C 0,0 km/h (0 Bft)
02.12.2013 03:41 -10,7 C 83 % 1026,6 hPa 0,0 l/m 0,0 km/h (0 Bft) O 90 -13,0 C -11,1 C 0,0 km/h (0 Bft)
02.12.2013 03:45 -11,1 C 83 % 1026,4 hPa 0,0 l/m 0,0 km/h (0 Bft) N 360 -13,4 C -10,9 C 0,0 km/h (0 Bft)
02.12.2013 03:52 -11,4 C 83 % 1026,4 hPa 0,0 l/m 0,0 km/h (0 Bft) N 360 -13,7 C -11,1 C 0,0 km/h (0 Bft)
02.12.2013 03:55 -11,6 C 82 % 1026,4 hPa 0,0 l/m 0,0 km/h (0 Bft) N 360 -14,0 C -11,3 C 0,0 km/h (0 Bft)
02.12.2013 04:02 -11,6 C 82 % 1026,2 hPa 0,0 l/m 0,0 km/h (0 Bft) N 360 -14,0 C -11,4 C 0,0 km/h (0 Bft)
02.12.2013 04:05 -11,6 C 82 % 1026,2 hPa 0,0 l/m 0,0 km/h (0 Bft) N 360 -14,0 C -11,4 C 0,0 km/h (0 Bft)
02.12.2013 04:13 -11,5 C 82 % 1026,2 hPa 0,0 l/m 0,0 km/h (0 Bft) N 360 -13,9 C -11,6 C 0,0 km/h (0 Bft)
02.12.2013 04:15 -11,5 C 82 % 1026,2 hPa 0,0 l/m 0,0 km/h (0 Bft) N 360 -13,9 C -11,6 C 0,0 km/h (0 Bft)
02.12.2013 04:24 -11,2 C 82 % 1026,4 hPa 0,0 l/m 0,0 km/h (0 Bft) NO 45 -13,6 C -11,4 C 0,0 km/h (0 Bft)
02.12.2013 04:25 -11,2 C 82 % 1026,4 hPa 0,0 l/m 0,0 km/h (0 Bft) NO 45 -13,6 C -11,4 C 0,0 km/h (0 Bft)
02.12.2013 04:35 -11,5 C 82 % 1026,4 hPa 0,0 l/m 0,0 km/h (0 Bft) N 360 -13,9 C -11,4 C 0,0 km/h (0 Bft)
02.12.2013 04:40 -11,3 C 82 % 1026,4 hPa 0,0 l/m 0,0 km/h (0 Bft) N 360 -13,7 C -11,4 C 0,0 km/h (0 Bft)
02.12.2013 04:46 -11,0 C 83 % 1026,6 hPa 0,0 l/m 0,0 km/h (0 Bft) N 360 -13,3 C -11,1 C 0,0 km/h (0 Bft)
02.12.2013 04:50 -11,2 C 83 % 1026,6 hPa 0,0 l/m 0,0 km/h (0 Bft) NO 45 -13,5 C -11,2 C 0,0 km/h (0 Bft)
02.12.2013 04:57 -11,6 C 82 % 1026,6 hPa 0,0 l/m 0,0 km/h (0 Bft) NO 45 -14,0 C -11,2 C 0,0 km/h (0 Bft)
02.12.2013 05:00 -11,6 C 82 % 1026,6 hPa 0,0 l/m 0,0 km/h (0 Bft) NO 45 -14,0 C -11,2 C 0,0 km/h (0 Bft)
02.12.2013 05:08 -11,3 C 82 % 1026,9 hPa 0,0 l/m 0,0 km/h (0 Bft) N-NO 22 -13,7 C -11,2 C 0,0 km/h (0 Bft)
02.12.2013 05:10 -11,3 C 82 % 1026,9 hPa 0,0 l/m 0,0 km/h (0 Bft) N-NO 22 -13,7 C -11,2 C 0,0 km/h (0 Bft)
02.12.2013 05:19 -11,8 C 82 % 1026,9 hPa 0,0 l/m 0,0 km/h (0 Bft) N 360 -14,2 C -11,0 C 0,0 km/h (0 Bft)
02.12.2013 05:20 -11,8 C 82 % 1026,9 hPa 0,0 l/m 0,0 km/h (0 Bft) N 360 -14,2 C -11,0 C 0,0 km/h (0 Bft)
02.12.2013 05:30 -11,8 C 82 % 1027,0 hPa 0,0 l/m 0,0 km/h (0 Bft) N 360 -14,2 C -11,6 C 0,0 km/h (0 Bft)
02.12.2013 05:35 -11,7 C 82 % 1027,0 hPa 0,0 l/m 0,0 km/h (0 Bft) N 360 -14,1 C -11,6 C 0,0 km/h (0 Bft)
02.12.2013 05:41 -11,6 C 82 % 1027,0 hPa 0,0 l/m 0,0 km/h (0 Bft) N 360 -14,0 C -11,6 C 0,0 km/h (0 Bft)
02.12.2013 05:45 -11,8 C 82 % 1027,3 hPa 0,0 l/m 0,0 km/h (0 Bft) N 360 -14,2 C -11,8 C 0,0 km/h (0 Bft)
02.12.2013 05:52 -12,3 C 81 % 1027,3 hPa 0,0 l/m 0,0 km/h (0 Bft) N 360 -14,9 C -11,7 C 0,0 km/h (0 Bft)
02.12.2013 05:55 -12,3 C 81 % 1027,3 hPa 0,0 l/m 0,0 km/h (0 Bft) N 360 -14,9 C -11,7 C 0,0 km/h (0 Bft)
02.12.2013 06:03 -12,5 C 81 % 1027,1 hPa 0,0 l/m 0,0 km/h (0 Bft) N 360 -15,1 C -12,1 C 0,0 km/h (0 Bft)
02.12.2013 06:05 -12,5 C 81 % 1027,1 hPa 0,0 l/m 0,0 km/h (0 Bft) N 360 -15,1 C -12,1 C 0,0 km/h (0 Bft)
02.12.2013 06:14 -12,3 C 81 % 1027,1 hPa 0,0 l/m 0,0 km/h (0 Bft) N 360 -14,9 C -12,2 C 0,0 km/h (0 Bft)
02.12.2013 06:15 -12,3 C 81 % 1027,1 hPa 0,0 l/m 0,0 km/h (0 Bft) N 360 -14,9 C -12,2 C 0,0 km/h (0 Bft)
02.12.2013 06:25 -12,3 C 81 % 1027,4 hPa 0,0 l/m 0,0 km/h (0 Bft) N 360 -14,9 C -12,5 C 0,0 km/h (0 Bft)
02.12.2013 06:30 -11,9 C 81 % 1027,4 hPa 0,0 l/m 0,0 km/h (0 Bft) N 360 -14,5 C -12,3 C 0,0 km/h (0 Bft)
02.12.2013 06:36 -12,4 C 81 % 1027,4 hPa 0,0 l/m 0,0 km/h (0 Bft) N 360 -15,0 C -12,3 C 0,0 km/h (0 Bft)
02.12.2013 06:40 -12,6 C 81 % 1027,4 hPa 0,0 l/m 0,0 km/h (0 Bft) N 360 -15,2 C -12,3 C 0,0 km/h (0 Bft)
02.12.2013 06:47 -12,9 C 80 % 1027,4 hPa 0,0 l/m 0,0 km/h (0 Bft) N 360 -15,6 C -12,6 C 0,0 km/h (0 Bft)
02.12.2013 06:50 -12,9 C 80 % 1027,4 hPa 0,0 l/m 0,0 km/h (0 Bft) N 360 -15,6 C -12,7 C 0,0 km/h (0 Bft)
02.12.2013 06:58 -12,7 C 80 % 1027,4 hPa 0,0 l/m 0,0 km/h (0 Bft) N 360 -15,4 C -12,7 C 0,0 km/h (0 Bft)
02.12.2013 07:00 -12,7 C 80 % 1027,4 hPa 0,0 l/m 0,0 km/h (0 Bft) N 360 -15,4 C -12,7 C 0,0 km/h (0 Bft)
02.12.2013 07:09 -13,2 C 80 % 1027,2 hPa 0,0 l/m 0,0 km/h (0 Bft) N 360 -15,9 C -12,9 C 0,0 km/h (0 Bft)
02.12.2013 07:10 -13,2 C 80 % 1027,2 hPa 0,0 l/m 0,0 km/h (0 Bft) N 360 -15,9 C -12,9 C 0,0 km/h (0 Bft)
02.12.2013 07:20 -12,5 C 80 % 1027,2 hPa 0,0 l/m 0,0 km/h (0 Bft) N 360 -15,2 C -12,8 C 0,0 km/h (0 Bft)
02.12.2013 07:25 -12,9 C 80 % 1027,1 hPa 0,0 l/m 0,0 km/h (0 Bft) N 360 -15,6 C -12,7 C 0,0 km/h (0 Bft)
02.12.2013 07:31 -13,0 C 80 % 1027,1 hPa 0,0 l/m 0,0 km/h (0 Bft) N 360 -15,7 C -12,8 C 0,0 km/h (0 Bft)
02.12.2013 07:35 -13,0 C 80 % 1027,1 hPa 0,0 l/m 0,0 km/h (0 Bft) N 360 -15,7 C -12,9 C 0,0 km/h (0 Bft)
02.12.2013 07:42 -13,1 C 80 % 1027,1 hPa 0,0 l/m 0,0 km/h (0 Bft) N 360 -15,8 C -12,9 C 0,0 km/h (0 Bft)
02.12.2013 07:45 -12,7 C 80 % 1027,1 hPa 0,0 l/m 0,0 km/h (0 Bft) N 360 -15,4 C -12,8 C 0,0 km/h (0 Bft)
02.12.2013 07:53 -12,7 C 80 % 1027,1 hPa 0,0 l/m 0,0 km/h (0 Bft) N 360 -15,4 C -12,6 C 0,0 km/h (0 Bft)
02.12.2013 07:55 -12,7 C 80 % 1027,1 hPa 0,0 l/m 0,0 km/h (0 Bft) N 360 -15,4 C -12,6 C 0,0 km/h (0 Bft)
02.12.2013 08:04 -10,8 C 82 % 1027,2 hPa 0,0 l/m 0,0 km/h (0 Bft) N-NO 22 -13,3 C -12,1 C 0,0 km/h (0 Bft)
02.12.2013 08:05 -10,8 C 82 % 1027,2 hPa 0,0 l/m 0,0 km/h (0 Bft) N-NO 22 -13,3 C -12,1 C 0,0 km/h (0 Bft)
02.12.2013 08:15 -12,5 C 81 % 1027,2 hPa 0,0 l/m 0,0 km/h (0 Bft) N-NO 22 -15,1 C -12,2 C 0,0 km/h (0 Bft)
02.12.2013 08:20 -12,6 C 81 % 1027,2 hPa 0,0 l/m 0,0 km/h (0 Bft) N-NO 22 -15,2 C -12,3 C 0,0 km/h (0 Bft)
02.12.2013 08:26 -12,5 C 81 % 1027,4 hPa 0,0 l/m 0,0 km/h (0 Bft) N 360 -15,1 C -12,3 C 0,0 km/h (0 Bft)
02.12.2013 08:30 -11,3 C 82 % 1027,4 hPa 0,0 l/m 0,0 km/h (0 Bft) N 360 -13,7 C -12,2 C 0,0 km/h (0 Bft)
02.12.2013 08:37 -11,8 C 82 % 1027,4 hPa 0,0 l/m 0,0 km/h (0 Bft) N 360 -14,2 C -11,9 C 0,0 km/h (0 Bft)
02.12.2013 08:40 -12,0 C 82 % 1027,4 hPa 0,0 l/m 0,0 km/h (0 Bft) N 360 -14,4 C -11,8 C 0,0 km/h (0 Bft)
02.12.2013 08:48 -11,7 C 82 % 1027,6 hPa 0,0 l/m 0,0 km/h (0 Bft) N 360 -14,1 C -11,7 C 0,0 km/h (0 Bft)
02.12.2013 08:50 -11,7 C 82 % 1027,6 hPa 0,0 l/m 0,0 km/h (0 Bft) N 360 -14,1 C -11,7 C 0,0 km/h (0 Bft)
02.12.2013 08:59 -11,8 C 82 % 1027,6 hPa 0,0 l/m 0,0 km/h (0 Bft) N 360 -14,2 C -11,3 C 0,0 km/h (0 Bft)
02.12.2013 08:58 -11,8 C 82 % 1027,6 hPa 0,0 l/m 0,0 km/h (0 Bft) N 360 -14,2 C -11,3 C 0,0 km/h (0 Bft)
02.12.2013 09:09 -11,6 C 82 % 1027,6 hPa 0,0 l/m 0,0 km/h (0 Bft) N 360 -14,0 C -11,0 C 0,0 km/h (0 Bft)
02.12.2013 09:10 -11,6 C 82 % 1027,6 hPa 0,0 l/m 0,0 km/h (0 Bft) N 360 -14,0 C -11,0 C 0,0 km/h (0 Bft)
02.12.2013 09:20 -10,7 C 83 % 1027,6 hPa 0,0 l/m 0,0 km/h (0 Bft) N 360 -13,0 C -10,9 C 0,0 km/h (0 Bft)
02.12.2013 09:25 -10,9 C 83 % 1027,8 hPa 0,0 l/m 0,0 km/h (0 Bft) N 360 -13,2 C -10,4 C 0,0 km/h (0 Bft)
02.12.2013 09:31 -11,1 C 83 % 1027,8 hPa 0,0 l/m 0,0 km/h (0 Bft) N 360 -13,4 C -10,3 C 0,0 km/h (0 Bft)
02.12.2013 09:35 -10,7 C 83 % 1027,8 hPa 0,0 l/m 0,0 km/h (0 Bft) N 360 -13,0 C -10,3 C 0,0 km/h (0 Bft)
02.12.2013 09:42 -10,2 C 83 % 1028,0 hPa 0,0 l/m 0,0 km/h (0 Bft) N 360 -12,5 C -10,0 C 0,0 km/h (0 Bft)
02.12.2013 09:45 -10,2 C 83 % 1028,0 hPa 0,0 l/m 0,0 km/h (0 Bft) N 360 -12,5 C -10,0 C 0,0 km/h (0 Bft)
02.12.2013 09:53 -9,1 C 85 % 1028,0 hPa 0,0 l/m 0,0 km/h (0 Bft) N-NO 22 -11,1 C -9,3 C 0,0 km/h (0 Bft)
02.12.2013 09:55 -9,1 C 85 % 1028,0 hPa 0,0 l/m 0,0 km/h (0 Bft) N-NO 22 -11,1 C -9,3 C 0,0 km/h (0 Bft)
02.12.2013 10:04 -9,3 C 85 % 1028,1 hPa 0,0 l/m 0,0 km/h (0 Bft) N-NO 22 -11,3 C -9,0 C 0,0 km/h (0 Bft)
02.12.2013 10:05 -9,3 C 85 % 1028,1 hPa 0,0 l/m 0,0 km/h (0 Bft) N-NO 22 -11,3 C -9,0 C 0,0 km/h (0 Bft)
02.12.2013 10:15 -9,0 C 85 % 1028,1 hPa 0,0 l/m 0,0 km/h (0 Bft) N-NO 22 -11,0 C -8,6 C 0,0 km/h (0 Bft)
02.12.2013 10:20 -8,5 C 86 % 1028,1 hPa 0,0 l/m 0,0 km/h (0 Bft) O 90 -10,4 C -8,4 C 0,0 km/h (0 Bft)
02.12.2013 10:26 -7,9 C 86 % 1028,1 hPa 0,0 l/m 0,0 km/h (0 Bft) NO 45 -9,8 C -8,0 C 0,0 km/h (0 Bft)
02.12.2013 10:30 -7,9 C 87 % 1028,1 hPa 0,0 l/m 0,0 km/h (0 Bft) NO 45 -9,7 C -7,7 C 0,0 km/h (0 Bft)
02.12.2013 10:37 -7,3 C 87 % 1028,1 hPa 0,0 l/m 0,0 km/h (0 Bft) NO 45 -9,1 C -7,4 C 0,0 km/h (0 Bft)
02.12.2013 10:40 -7,3 C 87 % 1028,1 hPa 0,0 l/m 0,0 km/h (0 Bft) NO 45 -9,1 C -7,4 C 0,0 km/h (0 Bft)
02.12.2013 10:48 -6,7 C 88 % 1028,1 hPa 0,0 l/m 0,0 km/h (0 Bft) NO 45 -8,3 C -6,9 C 0,0 km/h (0 Bft)
02.12.2013 10:50 -6,7 C 88 % 1028,1 hPa 0,0 l/m 0,0 km/h (0 Bft) NO 45 -8,3 C -6,9 C 0,0 km/h (0 Bft)
02.12.2013 10:59 -6,4 C 88 % 1028,1 hPa 0,0 l/m 0,0 km/h (0 Bft) N-NO 22 -8,1 C -6,0 C 0,0 km/h (0 Bft)
02.12.2013 11:00 -6,4 C 88 % 1028,1 hPa 0,0 l/m 0,0 km/h (0 Bft) N-NO 22 -8,1 C -6,0 C 0,0 km/h (0 Bft)
02.12.2013 11:10 -5,8 C 89 % 1028,1 hPa 0,0 l/m 0,0 km/h (0 Bft) NO 45 -7,3 C -5,2 C 0,0 km/h (0 Bft)
02.12.2013 11:15 -6,0 C 89 % 1028,1 hPa 0,0 l/m 0,0 km/h (0 Bft) N-NW 337 -7,5 C -5,0 C 0,0 km/h (0 Bft)
02.12.2013 11:21 -5,9 C 89 % 1028,1 hPa 0,0 l/m 0,0 km/h (0 Bft) N 360 -7,4 C -4,8 C 0,0 km/h (0 Bft)
02.12.2013 11:25 -5,7 C 89 % 1028,1 hPa 0,0 l/m 0,0 km/h (0 Bft) NW 315 -7,2 C -4,7 C 0,0 km/h (0 Bft)
02.12.2013 11:32 -5,4 C 90 % 1028,1 hPa 0,0 l/m 0,0 km/h (0 Bft) N 360 -6,8 C -4,5 C 0,0 km/h (0 Bft)
02.12.2013 11:35 -5,4 C 90 % 1028,1 hPa 0,0 l/m 0,0 km/h (0 Bft) N 360 -6,8 C -4,5 C 0,0 km/h (0 Bft)
02.12.2013 11:43 -5,2 C 90 % 1027,8 hPa 0,0 l/m 0,0 km/h (0 Bft) N 360 -6,6 C -4,4 C 0,0 km/h (0 Bft)
02.12.2013 11:45 -5,2 C 90 % 1027,8 hPa 0,0 l/m 0,0 km/h (0 Bft) N 360 -6,6 C -4,4 C 0,0 km/h (0 Bft)
02.12.2013 11:54 -5,0 C 90 % 1027,8 hPa 0,0 l/m 0,0 km/h (0 Bft) N-NW 337 -6,4 C -4,3 C 0,0 km/h (0 Bft)
02.12.2013 11:55 -5,0 C 90 % 1027,8 hPa 0,0 l/m 0,0 km/h (0 Bft) N-NW 337 -6,4 C -4,3 C 0,0 km/h (0 Bft)
02.12.2013 12:05 -5,0 C 90 % 1027,6 hPa 0,0 l/m 0,0 km/h (0 Bft) O-NO 67 -6,4 C -4,0 C 0,0 km/h (0 Bft)
02.12.2013 12:10 -5,0 C 90 % 1027,6 hPa 0,0 l/m 0,0 km/h (0 Bft) N-NW 337 -6,4 C -4,0 C 0,0 km/h (0 Bft)
02.12.2013 12:16 -4,8 C 90 % 1027,6 hPa 0,0 l/m 0,0 km/h (0 Bft) N 360 -6,2 C -3,9 C 0,0 km/h (0 Bft)
02.12.2013 12:20 -4,7 C 91 % 1027,6 hPa 0,0 l/m 0,0 km/h (0 Bft) N 360 -5,9 C -3,9 C 0,0 km/h (0 Bft)
02.12.2013 12:27 -4,5 C 91 % 1027,5 hPa 0,0 l/m 0,0 km/h (0 Bft) N-NW 337 -5,7 C -4,0 C 0,0 km/h (0 Bft)
02.12.2013 12:30 -4,6 C 91 % 1027,5 hPa 0,0 l/m 0,0 km/h (0 Bft) NO 45 -5,8 C -3,9 C 0,0 km/h (0 Bft)
02.12.2013 12:38 -4,7 C 91 % 1027,5 hPa 0,0 l/m 0,0 km/h (0 Bft) N 360 -5,9 C -3,8 C 0,0 km/h (0 Bft)
02.12.2013 12:40 -4,7 C 91 % 1027,5 hPa 0,0 l/m 0,0 km/h (0 Bft) N 360 -5,9 C -3,8 C 0,0 km/h (0 Bft)
02.12.2013 12:49 -4,3 C 91 % 1027,7 hPa 0,0 l/m 0,0 km/h (0 Bft) W-NW 292 -5,5 C -3,6 C 0,0 km/h (0 Bft)
02.12.2013 12:50 -4,3 C 91 % 1027,7 hPa 0,0 l/m 0,0 km/h (0 Bft) W-NW 292 -5,5 C -3,6 C 0,0 km/h (0 Bft)
02.12.2013 13:00 -4,4 C 91 % 1027,7 hPa 0,0 l/m 0,0 km/h (0 Bft) N 360 -5,6 C -3,5 C 0,0 km/h (0 Bft)
02.12.2013 13:05 -4,3 C 91 % 1027,8 hPa 0,0 l/m 0,0 km/h (0 Bft) NO 45 -5,5 C -3,5 C 0,0 km/h (0 Bft)
02.12.2013 13:11 -4,2 C 91 % 1027,8 hPa 0,0 l/m 0,0 km/h (0 Bft) NO 45 -5,4 C -3,5 C 0,0 km/h (0 Bft)
02.12.2013 13:15 -3,9 C 92 % 1027,8 hPa 0,0 l/m 0,0 km/h (0 Bft) NO 45 -5,0 C -3,5 C 0,0 km/h (0 Bft)
02.12.2013 13:22 -3,8 C 92 % 1027,8 hPa 0,0 l/m 0,0 km/h (0 Bft) W-SW 247 -4,9 C -3,5 C 0,0 km/h (0 Bft)
02.12.2013 13:25 -3,4 C 92 % 1027,7 hPa 0,0 l/m 0,5 km/h (0 Bft) W-NW 292 -4,5 C -3,3 C 7,6 km/h (2 Bft)
02.12.2013 13:33 -3,9 C 92 % 1027,7 hPa 0,0 l/m 0,0 km/h (0 Bft) N-NW 337 -5,0 C -1,9 C 0,0 km/h (0 Bft)
02.12.2013 13:35 -3,9 C 92 % 1027,7 hPa 0,0 l/m 0,0 km/h (0 Bft) N-NW 337 -5,0 C -1,9 C 0,0 km/h (0 Bft)
02.12.2013 13:44 -3,6 C 92 % 1027,6 hPa 0,0 l/m 0,0 km/h (0 Bft) NO 45 -4,7 C 1,0 C 0,0 km/h (0 Bft)
02.12.2013 13:45 -3,6 C 92 % 1027,6 hPa 0,0 l/m 0,0 km/h (0 Bft) NO 45 -4,7 C 1,0 C 0,0 km/h (0 Bft)
02.12.2013 13:55 -2,7 C 91 % 1027,6 hPa 0,0 l/m 0,3 km/h (0 Bft) N 360 -4,0 C 2,2 C 8,9 km/h (2 Bft)
02.12.2013 13:58 -2,4 C 91 % 1027,6 hPa 0,0 l/m 1,6 km/h (1 Bft) NO 45 -3,7 C 2,1 C 6,3 km/h (2 Bft)
02.12.2013 14:05 -2,5 C 90 % 1027,8 hPa 0,0 l/m 3,4 km/h (1 Bft) W-NW 292 -3,9 C 1,3 C 9,2 km/h (2 Bft)
02.12.2013 14:10 -2,7 C 89 % 1027,8 hPa 0,0 l/m 4,5 km/h (1 Bft) N-NW 337 -4,3 C 0,4 C 6,4 km/h (2 Bft)
02.12.2013 14:16 -3,0 C 89 % 1027,8 hPa 0,0 l/m 5,8 km/h (2 Bft) N-NW 337 -4,6 C -0,6 C 10,6 km/h (2 Bft)
02.12.2013 14:20 -3,1 C 89 % 1027,8 hPa 0,0 l/m 4,8 km/h (1 Bft) N-NW 337 -4,6 C -1,3 C 4,7 km/h (1 Bft)
02.12.2013 14:27 -3,2 C 89 % 1027,6 hPa 0,0 l/m 3,2 km/h (1 Bft) N-NO 22 -4,7 C 0,1 C 6,6 km/h (2 Bft)
02.12.2013 14:30 -3,2 C 89 % 1027,6 hPa 0,0 l/m 3,2 km/h (1 Bft) N-NO 22 -4,7 C 0,1 C 6,6 km/h (2 Bft)
02.12.2013 14:38 -3,3 C 90 % 1027,6 hPa 0,0 l/m 1,8 km/h (1 Bft) N-NO 22 -4,7 C 0,9 C 0,0 km/h (0 Bft)
02.12.2013 14:40 -3,3 C 90 % 1027,6 hPa 0,0 l/m 1,8 km/h (1 Bft) N-NO 22 -4,7 C 0,9 C 0,0 km/h (0 Bft)
02.12.2013 14:49 -3,2 C 91 % 1027,4 hPa 0,0 l/m 0,2 km/h (0 Bft) N-NO 22 -4,5 C -0,7 C 0,0 km/h (0 Bft)
02.12.2013 14:50 -3,2 C 91 % 1027,4 hPa 0,0 l/m 0,2 km/h (0 Bft) N-NO 22 -4,5 C -0,7 C 0,0 km/h (0 Bft)
02.12.2013 15:00 -3,4 C 91 % 1027,4 hPa 0,0 l/m 0,0 km/h (0 Bft) N 360 -4,7 C -1,2 C 0,0 km/h (0 Bft)
02.12.2013 15:05 -3,4 C 91 % 1027,4 hPa 0,0 l/m 0,0 km/h (0 Bft) NO 45 -4,7 C -1,1 C 0,0 km/h (0 Bft)
02.12.2013 15:11 -3,2 C 91 % 1027,4 hPa 0,0 l/m 0,0 km/h (0 Bft) N 360 -4,5 C -1,6 C 0,0 km/h (0 Bft)
02.12.2013 15:15 -3,5 C 91 % 1027,4 hPa 0,0 l/m 0,2 km/h (0 Bft) N-NO 22 -4,8 C -2,3 C 5,8 km/h (2 Bft)
02.12.2013 15:22 -3,4 C 92 % 1027,6 hPa 0,0 l/m 1,0 km/h (0 Bft) N 360 -4,5 C -2,8 C 0,0 km/h (0 Bft)
02.12.2013 15:25 -3,4 C 92 % 1027,6 hPa 0,0 l/m 1,0 km/h (0 Bft) N 360 -4,5 C -2,8 C 0,0 km/h (0 Bft)
02.12.2013 15:33 -3,5 C 92 % 1027,6 hPa 0,0 l/m 0,5 km/h (0 Bft) NO 45 -4,6 C -3,0 C 0,0 km/h (0 Bft)
02.12.2013 15:35 -3,5 C 92 % 1027,6 hPa 0,0 l/m 0,5 km/h (0 Bft) NO 45 -4,6 C -3,0 C 0,0 km/h (0 Bft)
02.12.2013 15:44 -3,6 C 92 % 1027,9 hPa 0,0 l/m 0,0 km/h (0 Bft) N 360 -4,7 C -3,2 C 0,0 km/h (0 Bft)
02.12.2013 15:45 -3,6 C 92 % 1027,9 hPa 0,0 l/m 0,0 km/h (0 Bft) N 360 -4,7 C -3,2 C 0,0 km/h (0 Bft)
02.12.2013 15:55 -3,7 C 92 % 1027,9 hPa 0,0 l/m 0,5 km/h (0 Bft) N-NW 337 -4,8 C -3,4 C 4,2 km/h (1 Bft)
02.12.2013 16:00 -3,7 C 92 % 1027,9 hPa 0,0 l/m 0,6 km/h (0 Bft) N-NO 22 -4,8 C -3,4 C 0,0 km/h (0 Bft)
02.12.2013 16:06 -3,5 C 92 % 1027,9 hPa 0,0 l/m 0,3 km/h (0 Bft) O-NO 67 -4,6 C -3,7 C 0,0 km/h (0 Bft)
02.12.2013 16:10 -3,8 C 92 % 1027,9 hPa 0,0 l/m 0,0 km/h (0 Bft) O-NO 67 -4,9 C -3,7 C 0,0 km/h (0 Bft)
02.12.2013 16:17 -4,0 C 92 % 1027,9 hPa 0,0 l/m 0,0 km/h (0 Bft) O 90 -5,1 C -4,1 C 0,0 km/h (0 Bft)
02.12.2013 16:20 -4,0 C 92 % 1027,9 hPa 0,0 l/m 0,0 km/h (0 Bft) O 90 -5,1 C -4,1 C 0,0 km/h (0 Bft)
02.12.2013 16:28 -4,1 C 92 % 1028,0 hPa 0,0 l/m 0,0 km/h (0 Bft) O-NO 67 -5,2 C -4,4 C 0,0 km/h (0 Bft)
02.12.2013 16:30 -4,1 C 92 % 1028,0 hPa 0,0 l/m 0,0 km/h (0 Bft) O-NO 67 -5,2 C -4,4 C 0,0 km/h (0 Bft)
02.12.2013 16:39 -4,3 C 92 % 1028,0 hPa 0,0 l/m 0,0 km/h (0 Bft) O-SO 112 -5,4 C -4,5 C 0,0 km/h (0 Bft)
02.12.2013 16:40 -4,3 C 92 % 1028,0 hPa 0,0 l/m 0,0 km/h (0 Bft) O-SO 112 -5,4 C -4,5 C 0,0 km/h (0 Bft)
02.12.2013 16:50 -4,6 C 92 % 1028,2 hPa 0,0 l/m 0,0 km/h (0 Bft) NO 45 -5,7 C -4,6 C 0,0 km/h (0 Bft)
02.12.2013 16:55 -4,5 C 92 % 1028,2 hPa 0,0 l/m 0,8 km/h (0 Bft) O-NO 67 -5,6 C -4,6 C 5,0 km/h (1 Bft)
02.12.2013 17:01 -4,5 C 92 % 1028,2 hPa 0,0 l/m 1,8 km/h (1 Bft) O-SO 112 -5,6 C -4,6 C 3,4 km/h (1 Bft)
02.12.2013 17:05 -4,5 C 92 % 1028,1 hPa 0,0 l/m 1,8 km/h (1 Bft) NO 45 -5,6 C -4,7 C 0,0 km/h (0 Bft)
02.12.2013 17:12 -4,4 C 92 % 1028,1 hPa 0,0 l/m 0,6 km/h (0 Bft) O 90 -5,5 C -4,9 C 0,0 km/h (0 Bft)
02.12.2013 17:15 -4,6 C 92 % 1028,1 hPa 0,0 l/m 0,0 km/h (0 Bft) NO 45 -5,7 C -5,1 C 0,0 km/h (0 Bft)
02.12.2013 17:23 -4,6 C 92 % 1028,1 hPa 0,0 l/m 0,0 km/h (0 Bft) NO 45 -5,7 C -5,0 C 0,0 km/h (0 Bft)
02.12.2013 17:25 -4,6 C 92 % 1028,1 hPa 0,0 l/m 0,0 km/h (0 Bft) NO 45 -5,7 C -5,0 C 0,0 km/h (0 Bft)
02.12.2013 17:34 -4,7 C 92 % 1028,1 hPa 0,0 l/m 0,0 km/h (0 Bft) NO 45 -5,8 C -4,9 C 0,0 km/h (0 Bft)
02.12.2013 17:35 -4,7 C 92 % 1028,1 hPa 0,0 l/m 0,0 km/h (0 Bft) NO 45 -5,8 C -4,9 C 0,0 km/h (0 Bft)
02.12.2013 17:45 -6,2 C 91 % 1028,2 hPa 0,0 l/m 0,0 km/h (0 Bft) N-NO 22 -7,4 C -5,6 C 0,0 km/h (0 Bft)
02.12.2013 17:50 -6,6 C 90 % 1028,2 hPa 0,0 l/m 0,0 km/h (0 Bft) N-NO 22 -8,0 C -6,1 C 0,0 km/h (0 Bft)
02.12.2013 17:56 -5,4 C 91 % 1028,2 hPa 0,0 l/m 0,0 km/h (0 Bft) O 90 -6,6 C -6,3 C 0,0 km/h (0 Bft)
02.12.2013 18:00 -5,6 C 90 % 1028,2 hPa 0,0 l/m 0,0 km/h (0 Bft) NO 45 -7,0 C -6,2 C 0,0 km/h (0 Bft)
02.12.2013 18:07 -5,5 C 91 % 1028,3 hPa 0,0 l/m 0,0 km/h (0 Bft) O-NO 67 -6,7 C -6,4 C 0,0 km/h (0 Bft)
02.12.2013 18:10 -5,3 C 91 % 1028,3 hPa 0,0 l/m 0,0 km/h (0 Bft) O-NO 67 -6,5 C -6,5 C 0,0 km/h (0 Bft)
02.12.2013 18:18 -6,8 C 90 % 1028,3 hPa 0,0 l/m 0,0 km/h (0 Bft) N-NO 22 -8,2 C -6,9 C 0,0 km/h (0 Bft)
02.12.2013 18:20 -6,8 C 90 % 1028,3 hPa 0,0 l/m 0,0 km/h (0 Bft) N-NO 22 -8,2 C -6,9 C 0,0 km/h (0 Bft)
02.12.2013 18:29 -5,1 C 91 % 1028,2 hPa 0,0 l/m 0,0 km/h (0 Bft) O-SO 112 -6,3 C -6,4 C 0,0 km/h (0 Bft)
02.12.2013 18:30 -5,1 C 91 % 1028,2 hPa 0,0 l/m 0,0 km/h (0 Bft) O-SO 112 -6,3 C -6,4 C 0,0 km/h (0 Bft)
02.12.2013 18:40 -5,1 C 91 % 1028,2 hPa 0,0 l/m 0,0 km/h (0 Bft) NO 45 -6,3 C -6,2 C 0,0 km/h (0 Bft)
02.12.2013 18:45 -5,1 C 91 % 1028,2 hPa 0,0 l/m 0,0 km/h (0 Bft) NO 45 -6,3 C -5,8 C 0,0 km/h (0 Bft)
02.12.2013 18:51 -5,1 C 91 % 1028,2 hPa 0,0 l/m 0,0 km/h (0 Bft) NO 45 -6,3 C -5,8 C 0,0 km/h (0 Bft)
02.12.2013 18:55 -5,1 C 91 % 1028,2 hPa 0,0 l/m 0,0 km/h (0 Bft) NO 45 -6,3 C -5,6 C 0,0 km/h (0 Bft)
02.12.2013 19:01 -5,1 C 91 % 1028,2 hPa 0,0 l/m 0,0 km/h (0 Bft) NO 45 -6,3 C -5,5 C 0,0 km/h (0 Bft)
02.12.2013 19:05 -5,3 C 91 % 1027,8 hPa 0,0 l/m 0,0 km/h (0 Bft) O 90 -6,5 C -5,5 C 0,0 km/h (0 Bft)
02.12.2013 19:12 -5,7 C 91 % 1027,8 hPa 0,0 l/m 0,0 km/h (0 Bft) O 90 -6,9 C -6,2 C 0,0 km/h (0 Bft)
02.12.2013 19:15 -5,7 C 91 % 1027,8 hPa 0,0 l/m 0,0 km/h (0 Bft) O 90 -6,9 C -6,2 C 0,0 km/h (0 Bft)
02.12.2013 19:23 -8,1 C 89 % 1027,8 hPa 0,0 l/m 0,0 km/h (0 Bft) N-NO 22 -9,6 C -7,4 C 0,0 km/h (0 Bft)
02.12.2013 19:25 -8,1 C 89 % 1027,8 hPa 0,0 l/m 0,0 km/h (0 Bft) N-NO 22 -9,6 C -7,4 C 0,0 km/h (0 Bft)
02.12.2013 19:34 -6,9 C 89 % 1027,8 hPa 0,0 l/m 0,0 km/h (0 Bft) O-NO 67 -8,4 C -7,9 C 0,0 km/h (0 Bft)
02.12.2013 19:35 -6,9 C 89 % 1027,8 hPa 0,0 l/m 0,0 km/h (0 Bft) O-NO 67 -8,4 C -7,9 C 0,0 km/h (0 Bft)
02.12.2013 19:45 -6,7 C 89 % 1027,5 hPa 0,0 l/m 1,3 km/h (1 Bft) O 90 -8,2 C -7,3 C 3,5 km/h (1 Bft)
02.12.2013 19:50 -7,7 C 89 % 1027,5 hPa 0,0 l/m 1,3 km/h (1 Bft) O 90 -9,2 C -7,7 C 0,0 km/h (0 Bft)
02.12.2013 19:56 -6,9 C 89 % 1027,5 hPa 0,0 l/m 0,0 km/h (0 Bft) NO 45 -8,4 C -7,9 C 0,0 km/h (0 Bft)
02.12.2013 20:00 -6,9 C 89 % 1027,5 hPa 0,0 l/m 1,1 km/h (1 Bft) O 90 -8,4 C -7,8 C 4,0 km/h (1 Bft)
02.12.2013 20:07 -6,9 C 89 % 1027,3 hPa 0,0 l/m 4,3 km/h (1 Bft) NO 45 -8,4 C -9,6 C 3,4 km/h (1 Bft)
02.12.2013 20:10 -6,9 C 89 % 1027,3 hPa 0,0 l/m 4,3 km/h (1 Bft) NO 45 -8,4 C -9,6 C 3,4 km/h (1 Bft)
02.12.2013 20:18 -8,0 C 89 % 1027,3 hPa 0,0 l/m 1,9 km/h (1 Bft) NO 45 -9,5 C -7,9 C 0,0 km/h (0 Bft)
02.12.2013 20:20 -8,0 C 89 % 1027,3 hPa 0,0 l/m 1,9 km/h (1 Bft) NO 45 -9,5 C -7,9 C 0,0 km/h (0 Bft)
02.12.2013 20:29 -8,4 C 88 % 1027,3 hPa 0,0 l/m 0,0 km/h (0 Bft) NO 45 -10,0 C -8,6 C 0,0 km/h (0 Bft)
02.12.2013 20:30 -8,4 C 88 % 1027,3 hPa 0,0 l/m 0,0 km/h (0 Bft) NO 45 -10,0 C -8,6 C 0,0 km/h (0 Bft)
02.12.2013 20:40 -8,0 C 88 % 1027,3 hPa 0,0 l/m 0,0 km/h (0 Bft) N-NO 22 -9,6 C -8,7 C 0,0 km/h (0 Bft)
02.12.2013 20:45 -9,0 C 87 % 1027,2 hPa 0,0 l/m 0,0 km/h (0 Bft) N-NO 22 -10,8 C -8,9 C 0,0 km/h (0 Bft)
02.12.2013 20:51 -9,2 C 87 % 1027,2 hPa 0,0 l/m 0,0 km/h (0 Bft) N-NO 22 -11,0 C -9,1 C 0,0 km/h (0 Bft)
02.12.2013 20:55 -8,5 C 87 % 1027,2 hPa 0,0 l/m 0,0 km/h (0 Bft) O-NO 67 -10,3 C -9,3 C 0,0 km/h (0 Bft)
02.12.2013 21:02 -8,8 C 87 % 1027,2 hPa 0,0 l/m 0,0 km/h (0 Bft) N-NO 22 -10,6 C -9,3 C 0,0 km/h (0 Bft)
02.12.2013 21:05 -8,8 C 87 % 1027,2 hPa 0,0 l/m 0,0 km/h (0 Bft) N-NO 22 -10,6 C -9,3 C 0,0 km/h (0 Bft)
02.12.2013 21:13 -9,4 C 86 % 1027,2 hPa 0,0 l/m 0,0 km/h (0 Bft) O-SO 112 -11,3 C -9,5 C 0,0 km/h (0 Bft)
02.12.2013 21:15 -9,4 C 86 % 1027,2 hPa 0,0 l/m 0,0 km/h (0 Bft) O-SO 112 -11,3 C -9,5 C 0,0 km/h (0 Bft)
02.12.2013 21:24 -9,6 C 86 % 1027,2 hPa 0,0 l/m 0,0 km/h (0 Bft) N-NO 22 -11,5 C -9,8 C 0,0 km/h (0 Bft)
02.12.2013 21:25 -9,6 C 86 % 1027,2 hPa 0,0 l/m 0,0 km/h (0 Bft) N-NO 22 -11,5 C -9,8 C 0,0 km/h (0 Bft)
02.12.2013 21:35 -9,6 C 86 % 1027,2 hPa 0,0 l/m 0,0 km/h (0 Bft) N-NO 22 -11,5 C -9,7 C 0,0 km/h (0 Bft)
02.12.2013 21:40 -9,5 C 86 % 1027,2 hPa 0,0 l/m 0,0 km/h (0 Bft) N-NO 22 -11,4 C -9,6 C 0,0 km/h (0 Bft)
02.12.2013 21:46 -9,9 C 85 % 1027,1 hPa 0,0 l/m 0,0 km/h (0 Bft) N-NO 22 -11,9 C -9,7 C 0,0 km/h (0 Bft)
02.12.2013 21:50 -9,8 C 85 % 1027,1 hPa 0,0 l/m 0,0 km/h (0 Bft) N-NO 22 -11,8 C -9,8 C 0,0 km/h (0 Bft)
02.12.2013 21:57 -10,0 C 85 % 1027,1 hPa 0,0 l/m 0,0 km/h (0 Bft) N-NO 22 -12,0 C -9,8 C 0,0 km/h (0 Bft)
02.12.2013 22:00 -10,0 C 85 % 1027,1 hPa 0,0 l/m 0,0 km/h (0 Bft) N-NO 22 -12,0 C -9,9 C 0,0 km/h (0 Bft)
02.12.2013 22:08 -9,9 C 85 % 1027,1 hPa 0,0 l/m 0,0 km/h (0 Bft) N-NO 22 -11,9 C -9,9 C 0,0 km/h (0 Bft)
02.12.2013 22:10 -9,9 C 85 % 1027,1 hPa 0,0 l/m 0,0 km/h (0 Bft) N-NO 22 -11,9 C -9,9 C 0,0 km/h (0 Bft)
02.12.2013 22:19 -10,3 C 84 % 1027,1 hPa 0,0 l/m 0,0 km/h (0 Bft) N-NO 22 -12,5 C -10,1 C 0,0 km/h (0 Bft)
02.12.2013 22:20 -10,3 C 84 % 1027,1 hPa 0,0 l/m 0,0 km/h (0 Bft) N-NO 22 -12,5 C -10,1 C 0,0 km/h (0 Bft)
02.12.2013 22:30 -10,7 C 84 % 1027,2 hPa 0,0 l/m 0,0 km/h (0 Bft) N-NO 22 -12,9 C -10,5 C 0,0 km/h (0 Bft)
02.12.2013 22:35 -10,7 C 84 % 1027,2 hPa 0,0 l/m 0,0 km/h (0 Bft) N-NO 22 -12,9 C -10,6 C 0,0 km/h (0 Bft)
02.12.2013 22:41 -10,7 C 84 % 1027,2 hPa 0,0 l/m 0,0 km/h (0 Bft) N-NO 22 -12,9 C -10,6 C 0,0 km/h (0 Bft)
02.12.2013 22:45 -11,0 C 83 % 1027,3 hPa 0,0 l/m 0,0 km/h (0 Bft) N-NO 22 -13,3 C -10,8 C 0,0 km/h (0 Bft)
02.12.2013 22:52 -11,1 C 83 % 1027,3 hPa 0,0 l/m 0,0 km/h (0 Bft) N-NO 22 -13,4 C -10,8 C 0,0 km/h (0 Bft)
02.12.2013 22:55 -11,0 C 83 % 1027,3 hPa 0,0 l/m 0,0 km/h (0 Bft) N-NO 22 -13,3 C -11,0 C 0,0 km/h (0 Bft)
02.12.2013 23:03 -10,8 C 83 % 1027,4 hPa 0,0 l/m 0,0 km/h (0 Bft) N-NO 22 -13,1 C -11,0 C 0,0 km/h (0 Bft)
02.12.2013 23:05 -10,8 C 83 % 1027,4 hPa 0,0 l/m 0,0 km/h (0 Bft) N-NO 22 -13,1 C -11,0 C 0,0 km/h (0 Bft)
02.12.2013 23:14 -10,9 C 83 % 1027,4 hPa 0,0 l/m 0,0 km/h (0 Bft) N-NO 22 -13,2 C -10,8 C 0,0 km/h (0 Bft)
02.12.2013 23:15 -10,9 C 83 % 1027,4 hPa 0,0 l/m 0,0 km/h (0 Bft) N-NO 22 -13,2 C -10,8 C 0,0 km/h (0 Bft)
02.12.2013 23:25 -11,0 C 83 % 1027,1 hPa 0,0 l/m 0,0 km/h (0 Bft) O-SO 112 -13,3 C -10,8 C 0,0 km/h (0 Bft)
02.12.2013 23:30 -11,0 C 83 % 1027,1 hPa 0,0 l/m 0,0 km/h (0 Bft) O-SO 112 -13,3 C -10,7 C 0,0 km/h (0 Bft)
02.12.2013 23:36 -11,1 C 83 % 1027,1 hPa 0,0 l/m 0,0 km/h (0 Bft) O-SO 112 -13,4 C -10,7 C 0,0 km/h (0 Bft)
02.12.2013 23:40 -11,1 C 83 % 1027,1 hPa 0,0 l/m 0,0 km/h (0 Bft) O-SO 112 -13,4 C -10,8 C 0,0 km/h (0 Bft)
02.12.2013 23:47 -10,8 C 83 % 1026,8 hPa 0,0 l/m 0,0 km/h (0 Bft) NO 45 -13,1 C -10,8 C 0,0 km/h (0 Bft)
02.12.2013 23:50 -10,8 C 83 % 1026,8 hPa 0,0 l/m 0,0 km/h (0 Bft) N-NO 22 -13,1 C -10,6 C 0,0 km/h (0 Bft)
02.12.2013 23:57 -10,8 C 83 % 1026,8 hPa 0,0 l/m 0,0 km/h (0 Bft) N-NO 22 -13,1 C -10,3 C 0,0 km/h (0 Bft)
_ Min-Zeit 07:10 07:55 04:15 - 23:57 - - 07:10 07:42 23:57
Minimum _ -13,2 C 80 % 1026,2 hPa - 0,0 km/h (0 Bft) - - -15,9 C -12,9 C 0,0 km/h (0 Bft)
_ Max-Zeit 13:58 17:35 18:20 23:57 14:16 - - 13:58 13:55 14:16
Maximum _ -2,4 C 92 % 1028,3 hPa 0,0 l/m 5,8 km/h
N-NW (2 Bft)
- - -3,7 C 2,2 C 10,6 km/h
N-NW (2 Bft)
Durchschnitt _ -8,4 C 86 % 1027,4 hPa #0,0 l/m 0,2 km/h (0 Bft) NO - -10,2 C -8,1 C 0,4 km/h (0 Bft)